Terminal Aerodrome Forecast
Issued by NWS

Home | Current Version | Previous Version | Text Only | Print | Product List | Glossary On
Versions: 1 2 3 4 5 6 7 8 9 10 11 12 13 14 15 16
000
FTUS42 KTBW 270312 AAB
TAFRSW
TAF AMD
KRSW 270312Z 2703/2724 VRB05KT P6SM VCTS SCT035CB BKN100
      TEMPO 2703/2705 VRB12G20KT 3SM TSRA BKN030CB
     FM270500 VRB04KT P6SM FEW030 BKN200
     FM271600 28006KT P6SM SCT035
     FM271900 28010KT P6SM VCTS SCT035CB=

USA.gov is the U.S. government's official web portal to all federal, state and local government web resources and services.